sat.trackr.live / text

‹ back to catalog

STARLINK-36148

NORAD 67005 · 2025-293C

PAYLOAD ACTIVE UNKNOWN

§ Identity

Operator
Country
US
Launch date
2025-12-10
Launch site
AFWTR
Launch vehicle
Mass (kg)
RCS (m²)

Purposes: comms

External: N2YO · Heavens-Above · Gunter

§ Orbital elements

Epoch: 2026-05-25T01:14:24.476352Z

Period
96.11 min
Inclination
70.0008°
Eccentricity
0.0003304
Mean motion
14.98336488 rev/d
Perigee alt
569.7 km
Apogee alt
574.3 km
Semi-major
6,950.2 km
B*
2.4648e-4
RAAN
262.0195°
Arg perigee
269.8100°
Mean anomaly
90.2680°
Rev number
2,632

§ Raw data

STARLINK-361481 67005U 25293C   26145.05167218  .00002850  00000+0  24648-3 0  99982 67005  70.0008 262.0195 0003304 269.8100  90.2680 14.98336488 26328

JSON: /api/v1/satellites/67005 · /tle

For live sub-satellite position, see the globe view (requires WebGL).

§ Visibility from observer

Set your observer location to see the next 7 days of passes ≥ 10°. The values pass through the URL so the page stays shareable.

No JS? Fill the form by hand. The geolocation button needs JavaScript.